EN

Hourly Weather Lukanowice

Today, 3 December, Thursday

Time Temperature Precipitation Wind Pressure Humidity
00:00 -4°C° 0 mm 2 mps 745 mmHg 73%
01:00 -4°C° 0 mm 2 mps 745 mmHg 72%
02:00 -4°C° 0 mm 2 mps 745 mmHg 72%
03:00 -4°C° 0 mm 2 mps 744 mmHg 71%
04:00 -4°C° 0 mm 2 mps 744 mmHg 71%
05:00 -4°C° 0 mm 2 mps 743 mmHg 70%
06:00 -4°C° 0 mm 3 mps 743 mmHg 69%
07:00 -4°C° 0 mm 3 mps 743 mmHg 68%
08:00 -2°C° 0 mm 3 mps 743 mmHg 66%
09:00 -1°C° 0 mm 3 mps 742 mmHg 63%
10:00 0°C° 0 mm 4 mps 742 mmHg 61%
11:00 +2°C° 0 mm 3 mps 742 mmHg 61%
12:00 +2°C° 0 mm 3 mps 741 mmHg 61%
13:00 +3°C° 0 mm 3 mps 741 mmHg 61%
14:00 +2°C° 0 mm 3 mps 741 mmHg 62%
15:00 +2°C° 0 mm 3 mps 740 mmHg 63%
16:00 +1°C° 0 mm 3 mps 740 mmHg 65%
17:00 +1°C° 0 mm 3 mps 740 mmHg 65%
18:00 0°C° 0 mm 4 mps 740 mmHg 65%
19:00 0°C° 0 mm 4 mps 739 mmHg 66%
20:00 0°C° 0 mm 4 mps 739 mmHg 67%
21:00 0°C° 0 mm 4 mps 739 mmHg 67%
22:00 0°C° 0 mm 4 mps 739 mmHg 68%
23:00 0°C° 0 mm 4 mps 739 mmHg 69%

Tomorrow, 4 December, Friday

Time Temperature Precipitation Wind Pressure Humidity
00:00 0°C° 0 mm 4 mps 738 mmHg 70%
01:00 +1°C° 0 mm 5 mps 738 mmHg 71%
02:00 +1°C° 0 mm 5 mps 738 mmHg 70%
03:00 +1°C° 0 mm 5 mps 737 mmHg 69%
04:00 +1°C° 0 mm 5 mps 737 mmHg 68%
05:00 +1°C° 0 mm 6 mps 737 mmHg 67%
06:00 +1°C° 0 mm 6 mps 737 mmHg 66%
07:00 +1°C° 0 mm 6 mps 737 mmHg 64%
08:00 +2°C° 0 mm 6 mps 737 mmHg 63%
09:00 +3°C° 0 mm 6 mps 737 mmHg 61%
10:00 +3°C° 0 mm 6 mps 737 mmHg 60%
11:00 +4°C° 0 mm 7 mps 737 mmHg 60%
12:00 +4°C° 0 mm 7 mps 736 mmHg 59%
13:00 +5°C° 0 mm 7 mps 736 mmHg 59%
14:00 +4°C° 0 mm 7 mps 736 mmHg 61%
15:00 +4°C° 0 mm 7 mps 737 mmHg 63%
16:00 +3°C° 0 mm 7 mps 737 mmHg 65%
17:00 +3°C° 0 mm 7 mps 737 mmHg 67%
18:00 +3°C° 0 mm 7 mps 737 mmHg 68%
19:00 +3°C° 0 mm 7 mps 737 mmHg 70%
20:00 +3°C° 0 mm 7 mps 737 mmHg 72%
21:00 +3°C° 0 mm 6 mps 737 mmHg 73%
22:00 +3°C° 0 mm 6 mps 738 mmHg 75%
23:00 +2°C° 0 mm 6 mps 738 mmHg 76%

Day after tomorrow, 5 December, Saturday

Time Temperature Precipitation Wind Pressure Humidity
00:00 +2°C° 0 mm 6 mps 738 mmHg 77%
01:00 +2°C° 0 mm 6 mps 738 mmHg 78%
02:00 +2°C° 0 mm 6 mps 738 mmHg 79%
03:00 +2°C° 0 mm 5 mps 738 mmHg 80%
04:00 +2°C° 0 mm 5 mps 738 mmHg 82%
05:00 +2°C° 0 mm 5 mps 738 mmHg 82%
06:00 +2°C° 0 mm 5 mps 739 mmHg 83%
07:00 +2°C° 0 mm 5 mps 739 mmHg 84%
08:00 +5°C° 0 mm 5 mps 739 mmHg 80%
09:00 +5°C° 0 mm 6 mps 739 mmHg 77%
10:00 +7°C° 0 mm 6 mps 739 mmHg 73%
11:00 +8°C° 0 mm 6 mps 739 mmHg 72%
12:00 +8°C° 0 mm 6 mps 739 mmHg 71%
13:00 +9°C° 0 mm 6 mps 739 mmHg 69%
14:00 +8°C° 0 mm 6 mps 739 mmHg 73%
15:00 +7°C° 0 mm 6 mps 739 mmHg 76%
16:00 +5°C° 0 mm 6 mps 739 mmHg 79%
17:00 +5°C° 0 mm 6 mps 739 mmHg 79%
18:00 +5°C° 0 mm 6 mps 740 mmHg 80%
19:00 +5°C° 0 mm 6 mps 740 mmHg 80%
20:00 +5°C° 0 mm 6 mps 740 mmHg 81%
21:00 +6°C° 0 mm 5 mps 740 mmHg 81%
22:00 +6°C° 0 mm 5 mps 740 mmHg 82%
23:00 +5°C° 0 mm 6 mps 740 mmHg 82%

6 December, Sunday

Time Temperature Precipitation Wind Pressure Humidity
00:00 +5°C° 0 mm 6 mps 740 mmHg 82%
01:00 +5°C° 0 mm 6 mps 740 mmHg 82%
02:00 +5°C° 0 mm 6 mps 740 mmHg 82%
03:00 +5°C° 0 mm 6 mps 740 mmHg 83%
04:00 +5°C° 0 mm 6 mps 740 mmHg 83%
05:00 +4°C° 0 mm 6 mps 740 mmHg 83%
06:00 +5°C° 0 mm 5 mps 740 mmHg 83%
07:00 +5°C° 0 mm 5 mps 740 mmHg 84%
08:00 +6°C° 0 mm 5 mps 740 mmHg 80%
09:00 +7°C° 0 mm 5 mps 740 mmHg 77%
10:00 +7°C° 0 mm 5 mps 740 mmHg 74%
11:00 +8°C° 0 mm 5 mps 740 mmHg 72%
12:00 +8°C° 0 mm 6 mps 739 mmHg 70%
13:00 +9°C° 0 mm 6 mps 739 mmHg 69%
14:00 +8°C° 0 mm 6 mps 738 mmHg 73%
15:00 +7°C° 0 mm 5 mps 738 mmHg 77%
16:00 +6°C° 0 mm 5 mps 738 mmHg 81%
17:00 +5°C° 0 mm 5 mps 738 mmHg 82%
18:00 +5°C° 0 mm 4 mps 738 mmHg 83%
19:00 +5°C° 0 mm 4 mps 738 mmHg 84%
20:00 +5°C° 0 mm 4 mps 738 mmHg 84%
21:00 +5°C° 0 mm 4 mps 738 mmHg 83%
22:00 +5°C° 0 mm 4 mps 738 mmHg 82%
23:00 +5°C° 0 mm 5 mps 738 mmHg 82%

7 December, Monday

Time Temperature Precipitation Wind Pressure Humidity
00:00 +5°C° 0 mm 5 mps 738 mmHg 81%
01:00 +5°C° 0 mm 5 mps 737 mmHg 81%
02:00 +5°C° 0 mm 5 mps 737 mmHg 80%
03:00 +5°C° 0 mm 5 mps 737 mmHg 80%
04:00 +6°C° 0 mm 5 mps 737 mmHg 79%
05:00 +6°C° 0.1 mm 5 mps 737 mmHg 81%
06:00 +6°C° 0.1 mm 5 mps 737 mmHg 82%
07:00 +5°C° 0.1 mm 6 mps 737 mmHg 84%
08:00 +7°C° 0 mm 5 mps 737 mmHg 83%
09:00 +7°C° 0 mm 5 mps 738 mmHg 82%
10:00 +8°C° 0 mm 4 mps 738 mmHg 80%
11:00 +8°C° 0 mm 5 mps 738 mmHg 78%
12:00 +9°C° 0 mm 5 mps 738 mmHg 77%
13:00 +9°C° 0 mm 5 mps 738 mmHg 75%
14:00 +8°C° 0 mm 4 mps 739 mmHg 78%
15:00 +8°C° 0 mm 3 mps 739 mmHg 81%
16:00 +8°C° 0 mm 3 mps 739 mmHg 85%
17:00 +7°C° 0 mm 2 mps 740 mmHg 86%
18:00 +7°C° 0 mm 2 mps 740 mmHg 87%
19:00 +7°C° 0 mm 1 mps 740 mmHg 89%
20:00 +7°C° 0 mm 1 mps 741 mmHg 89%
21:00 +7°C° 0 mm 1 mps 741 mmHg 90%
22:00 +6°C° 0 mm 1 mps 741 mmHg 90%
23:00 +6°C° 0 mm 1 mps 742 mmHg 90%

8 December, Tuesday

Time Temperature Precipitation Wind Pressure Humidity
00:00 +6°C° 0 mm 1 mps 742 mmHg 89%
01:00 +5°C° 0 mm 1 mps 742 mmHg 89%
02:00 +5°C° 0 mm 1 mps 742 mmHg 89%
03:00 +5°C° 0 mm 1 mps 742 mmHg 89%
04:00 +4°C° 0 mm 1 mps 742 mmHg 89%
05:00 +4°C° 0 mm 1 mps 742 mmHg 89%
06:00 +4°C° 0 mm 1 mps 743 mmHg 89%
07:00 +3°C° 0 mm 1 mps 743 mmHg 88%
08:00 +4°C° 0 mm 1 mps 743 mmHg 85%
09:00 +5°C° 0 mm 1 mps 743 mmHg 83%
10:00 +5°C° 0 mm 2 mps 743 mmHg 80%
11:00 +6°C° 0 mm 2 mps 743 mmHg 78%
12:00 +7°C° 0 mm 2 mps 743 mmHg 75%
13:00 +7°C° 0 mm 2 mps 743 mmHg 73%
14:00 +5°C° 0 mm 3 mps 743 mmHg 78%
15:00 +4°C° 0 mm 3 mps 743 mmHg 82%
16:00 +3°C° 0 mm 3 mps 743 mmHg 86%
17:00 +3°C° 0 mm 3 mps 743 mmHg 88%
18:00 +3°C° 0 mm 3 mps 743 mmHg 89%
19:00 +2°C° 0 mm 3 mps 743 mmHg 91%
20:00 +2°C° 0 mm 3 mps 743 mmHg 91%
21:00 +2°C° 0 mm 3 mps 743 mmHg 92%
22:00 +2°C° 0 mm 3 mps 743 mmHg 92%
23:00 +2°C° 0 mm 3 mps 743 mmHg 92%
Show more